When you browse on this site, cookies collect data to enhance your experience and personalize the content and advertising you see.
Visit our Privacy Policy to learn more. By continuing to use the site, you agree to this use of cookies and data.

Stündliche Wetter Zaprose

Heute, 11 Juli, Samstag

Zeit Temperatur Niederschläge Wind Luftdruck Luftfeuchtigkeit
00:00 +20°C° 0.1 mm 4 m/S 749 mmHg 94%
01:00 +20°C° 0.1 mm 4 m/S 749 mmHg 94%
02:00 +20°C° 0.1 mm 4 m/S 750 mmHg 94%
03:00 +20°C° 0 mm 4 m/S 749 mmHg 94%
04:00 +19°C° 0 mm 4 m/S 749 mmHg 94%
05:00 +19°C° 0 mm 4 m/S 749 mmHg 94%
06:00 +20°C° 0 mm 4 m/S 749 mmHg 89%
07:00 +22°C° 0 mm 4 m/S 750 mmHg 85%
08:00 +23°C° 0 mm 4 m/S 750 mmHg 81%
09:00 +25°C° 0 mm 3 m/S 750 mmHg 75%
10:00 +27°C° 0 mm 2 m/S 751 mmHg 70%
11:00 +28°C° 0 mm 2 m/S 751 mmHg 65%
12:00 +28°C° 0.9 mm 2 m/S 751 mmHg 68%
13:00 +28°C° 0.9 mm 2 m/S 751 mmHg 71%
14:00 +28°C° 0.9 mm 3 m/S 751 mmHg 75%
15:00 +27°C° 1.3 mm 3 m/S 750 mmHg 78%
16:00 +26°C° 1.3 mm 4 m/S 750 mmHg 81%
17:00 +25°C° 1.3 mm 4 m/S 750 mmHg 85%
18:00 +22°C° 0.6 mm 4 m/S 750 mmHg 87%
19:00 +21°C° 0.6 mm 4 m/S 750 mmHg 90%
20:00 +20°C° 0.6 mm 4 m/S 750 mmHg 93%
21:00 +19°C° 1.1 mm 4 m/S 750 mmHg 93%
22:00 +18°C° 1.1 mm 4 m/S 751 mmHg 93%
23:00 +17°C° 1.1 mm 4 m/S 751 mmHg 94%

Morgen, 12 Juli, Sonntag

Zeit Temperatur Niederschläge Wind Luftdruck Luftfeuchtigkeit
00:00 +15°C° 1.8 mm 4 m/S 751 mmHg 95%
01:00 +15°C° 1.8 mm 5 m/S 751 mmHg 95%
02:00 +14°C° 1.8 mm 5 m/S 750 mmHg 96%
03:00 +14°C° 0.2 mm 5 m/S 750 mmHg 95%
04:00 +13°C° 0.2 mm 5 m/S 750 mmHg 95%
05:00 +13°C° 0.2 mm 5 m/S 750 mmHg 95%
06:00 +13°C° 0.2 mm 5 m/S 751 mmHg 95%
07:00 +13°C° 0.2 mm 5 m/S 751 mmHg 95%
08:00 +13°C° 0.2 mm 5 m/S 751 mmHg 96%
09:00 +12°C° 0.4 mm 5 m/S 751 mmHg 95%
10:00 +12°C° 0.4 mm 5 m/S 751 mmHg 94%
11:00 +11°C° 0.4 mm 6 m/S 752 mmHg 93%
12:00 +10°C° 0.4 mm 6 m/S 752 mmHg 94%
13:00 +10°C° 0.4 mm 6 m/S 752 mmHg 94%
14:00 +10°C° 0.4 mm 6 m/S 752 mmHg 95%
15:00 +10°C° 0.6 mm 5 m/S 752 mmHg 94%
16:00 +10°C° 0.6 mm 5 m/S 752 mmHg 94%
17:00 +11°C° 0.6 mm 4 m/S 752 mmHg 94%
18:00 +11°C° 0 mm 4 m/S 752 mmHg 94%
19:00 +11°C° 0 mm 3 m/S 752 mmHg 94%
20:00 +11°C° 0 mm 3 m/S 752 mmHg 93%
21:00 +12°C° 0 mm 2 m/S 752 mmHg 94%
22:00 +10°C° 0 mm 2 m/S 752 mmHg 95%
23:00 +10°C° 0 mm 2 m/S 752 mmHg 96%

übermorgen, 13 Juli, Montag

Zeit Temperatur Niederschläge Wind Luftdruck Luftfeuchtigkeit
00:00 +10°C° 0 mm 2 m/S 752 mmHg 96%
01:00 +9°C° 0 mm 2 m/S 752 mmHg 96%
02:00 +9°C° 0 mm 2 m/S 752 mmHg 96%
03:00 +9°C° 0 mm 3 m/S 752 mmHg 96%
04:00 +9°C° 0 mm 3 m/S 752 mmHg 96%
05:00 +10°C° 0 mm 3 m/S 752 mmHg 96%
06:00 +11°C° 0 mm 4 m/S 752 mmHg 91%
07:00 +12°C° 0 mm 4 m/S 752 mmHg 86%
08:00 +14°C° 0 mm 5 m/S 752 mmHg 80%
09:00 +15°C° 0 mm 5 m/S 751 mmHg 74%
10:00 +16°C° 0 mm 5 m/S 751 mmHg 68%
11:00 +17°C° 0 mm 5 m/S 751 mmHg 62%
12:00 +19°C° 0 mm 5 m/S 751 mmHg 61%
13:00 +19°C° 0 mm 5 m/S 751 mmHg 60%
14:00 +20°C° 0 mm 4 m/S 751 mmHg 59%
15:00 +19°C° 0.1 mm 4 m/S 750 mmHg 61%
16:00 +19°C° 0.1 mm 4 m/S 750 mmHg 62%
17:00 +19°C° 0.1 mm 4 m/S 750 mmHg 64%
18:00 +18°C° 0 mm 3 m/S 750 mmHg 71%
19:00 +16°C° 0 mm 3 m/S 750 mmHg 78%
20:00 +15°C° 0 mm 2 m/S 750 mmHg 84%
21:00 +14°C° 0 mm 2 m/S 750 mmHg 87%
22:00 +13°C° 0 mm 2 m/S 750 mmHg 90%
23:00 +11°C° 0 mm 3 m/S 750 mmHg 93%

14 Juli, Dienstag

Zeit Temperatur Niederschläge Wind Luftdruck Luftfeuchtigkeit
00:00 +11°C° 0 mm 3 m/S 750 mmHg 94%
01:00 +12°C° 0 mm 2 m/S 750 mmHg 94%
02:00 +10°C° 0 mm 2 m/S 750 mmHg 95%
03:00 +10°C° 0 mm 2 m/S 750 mmHg 95%
04:00 +10°C° 0 mm 2 m/S 750 mmHg 95%
05:00 +10°C° 0 mm 2 m/S 750 mmHg 95%
06:00 +13°C° 0 mm 2 m/S 750 mmHg 90%
07:00 +15°C° 0 mm 2 m/S 750 mmHg 84%
08:00 +17°C° 0 mm 3 m/S 750 mmHg 78%
09:00 +18°C° 0 mm 3 m/S 750 mmHg 72%
10:00 +20°C° 0 mm 3 m/S 750 mmHg 66%
11:00 +21°C° 0 mm 3 m/S 750 mmHg 61%
12:00 +21°C° 0.2 mm 3 m/S 750 mmHg 60%
13:00 +22°C° 0.2 mm 4 m/S 750 mmHg 59%
14:00 +22°C° 0.2 mm 4 m/S 750 mmHg 59%
15:00 +22°C° 0.1 mm 3 m/S 750 mmHg 60%
16:00 +22°C° 0.1 mm 3 m/S 750 mmHg 61%
17:00 +22°C° 0.1 mm 3 m/S 749 mmHg 63%
18:00 +20°C° 0.1 mm 3 m/S 750 mmHg 70%
19:00 +18°C° 0.1 mm 2 m/S 750 mmHg 76%
20:00 +18°C° 0.1 mm 1 m/S 750 mmHg 83%
21:00 +16°C° 0 mm 1 m/S 750 mmHg 86%
22:00 +15°C° 0 mm 1 m/S 750 mmHg 88%
23:00 +14°C° 0 mm 1 m/S 750 mmHg 91%

15 Juli, Mittwoch

Zeit Temperatur Niederschläge Wind Luftdruck Luftfeuchtigkeit
00:00 +13°C° 0 mm 1 m/S 750 mmHg 91%
01:00 +13°C° 0 mm 1 m/S 750 mmHg 92%
02:00 +12°C° 0 mm 1 m/S 750 mmHg 93%
03:00 +12°C° 0 mm 1 m/S 750 mmHg 92%
04:00 +12°C° 0 mm 1 m/S 750 mmHg 92%
05:00 +12°C° 0 mm 1 m/S 750 mmHg 92%
06:00 +14°C° 0 mm 1 m/S 750 mmHg 86%
07:00 +15°C° 0 mm 0 m/S 750 mmHg 79%
08:00 +17°C° 0 mm 0 m/S 750 mmHg 73%
09:00 +19°C° 0 mm 0 m/S 750 mmHg 67%
10:00 +20°C° 0 mm 0 m/S 750 mmHg 62%
11:00 +22°C° 0 mm 0 m/S 750 mmHg 56%
12:00 +24°C° 0 mm 1 m/S 750 mmHg 55%
13:00 +24°C° 0 mm 1 m/S 749 mmHg 53%
14:00 +24°C° 0 mm 1 m/S 749 mmHg 52%
15:00 +24°C° 0.2 mm 1 m/S 749 mmHg 56%
16:00 +24°C° 0.2 mm 1 m/S 749 mmHg 60%
17:00 +23°C° 0.2 mm 1 m/S 748 mmHg 64%
18:00 +22°C° 0 mm 1 m/S 748 mmHg 69%
19:00 +20°C° 0 mm 1 m/S 748 mmHg 73%
20:00 +19°C° 0 mm 1 m/S 748 mmHg 78%
21:00 +18°C° 0 mm 1 m/S 748 mmHg 80%
22:00 +16°C° 0 mm 1 m/S 748 mmHg 82%
23:00 +16°C° 0 mm 2 m/S 748 mmHg 84%

16 Juli, Donnerstag

Zeit Temperatur Niederschläge Wind Luftdruck Luftfeuchtigkeit
00:00 +15°C° 0 mm 2 m/S 748 mmHg 86%
01:00 +15°C° 0 mm 2 m/S 747 mmHg 87%
02:00 +15°C° 0 mm 2 m/S 747 mmHg 89%
03:00 +15°C° 0 mm 2 m/S 747 mmHg 90%
04:00 +15°C° 0 mm 2 m/S 746 mmHg 91%
05:00 +15°C° 0 mm 2 m/S 746 mmHg 92%
06:00 +16°C° 0.1 mm 3 m/S 746 mmHg 90%
07:00 +17°C° 0.1 mm 3 m/S 746 mmHg 87%
08:00 +18°C° 0.1 mm 3 m/S 746 mmHg 85%
09:00 +19°C° 0.2 mm 3 m/S 746 mmHg 86%
10:00 +19°C° 0.2 mm 4 m/S 745 mmHg 87%
11:00 +19°C° 0.2 mm 4 m/S 745 mmHg 88%
12:00 +19°C° 0.1 mm 4 m/S 745 mmHg 83%
13:00 +20°C° 0.1 mm 4 m/S 745 mmHg 79%
14:00 +20°C° 0.1 mm 4 m/S 745 mmHg 74%
15:00 +20°C° 0.4 mm 4 m/S 745 mmHg 76%
16:00 +20°C° 0.4 mm 4 m/S 745 mmHg 78%
17:00 +20°C° 0.4 mm 5 m/S 744 mmHg 80%
18:00 +18°C° 0.2 mm 4 m/S 744 mmHg 82%
19:00 +17°C° 0.2 mm 4 m/S 745 mmHg 85%
20:00 +15°C° 0.2 mm 4 m/S 745 mmHg 88%
21:00 +14°C° 0.1 mm 4 m/S 745 mmHg 90%
22:00 +14°C° 0.1 mm 4 m/S 745 mmHg 92%
23:00 +13°C° 0.1 mm 4 m/S 745 mmHg 94%
Mehr zeigen